GW6887 Weather Reports


Display with metric or nautical units.
time (UTC)temp
F
wind
direction
speed
MPH
gust
MPH
rain 1hr
in
rain 24hr
in
rain mn
in
humidity
%
barometer
mb
20260509052707 49 192 1.0 3.0 0.00 0.00 0.00 44 1006.6
20260509052207 48 213 1.0 2.0 0.00 0.00 0.00 44 1006.6
20260509051707 48 184 2.0 3.0 0.00 0.00 0.00 46 1006.5
20260509050707 48 168 1.0 2.0 0.00 0.00 0.00 44 1006.7
20260509050207 48 181 1.0 2.0 0.00 0.00 0.00 43 1006.6
20260509045707 48 197 1.0 2.0 0.00 0.00 0.00 45 1006.7
20260509045207 48 211 1.0 2.0 0.00 0.00 0.00 43 1006.7
20260509044707 47 191 1.0 2.0 0.00 0.00 0.00 46 1006.7
20260509044206 47 179 1.0 3.0 0.00 0.00 0.00 47 1006.7
20260509043707 47 161 1.0 2.0 0.00 0.00 0.00 47 1006.8
20260509042707 47 202 1.0 2.0 0.00 0.00 0.00 44 1006.9
20260509042207 47 206 1.0 2.0 0.00 0.00 0.00 46 1007.0
20260509041206 47 176 1.0 2.0 0.00 0.00 0.00 48 1007.0
20260509040707 47 154 1.0 2.0 0.00 0.00 0.00 48 1007.1
20260509040207 47 150 1.0 2.0 0.00 0.00 0.00 50 1007.2
20260509035207 47 167 1.0 2.0 0.00 0.00 0.00 48 1007.3
20260509034708 48 167 1.0 2.0 0.00 0.00 0.00 48 1007.4
20260509034206 48 153 1.0 2.0 0.00 0.00 0.00 49 1007.4
20260509033707 48 150 1.0 2.0 0.00 0.00 0.00 49 1007.5
20260509033207 49 160 0.0 2.0 0.00 0.00 0.00 46 1007.5
20260509032708 49 229 0.0 2.0 0.00 0.00 0.00 50 1007.6
20260509032207 49 204 0.0 2.0 0.00 0.00 0.00 47 1007.6
20260509031706 49 148 1.0 1.0 0.00 0.00 0.00 48 1007.6
20260509031207 49 218 0.0 1.0 0.00 0.00 0.00 48 1007.7
20260509030707 48 147 0.0 1.0 0.00 0.00 0.00 48 1007.8
20260509030207 48 157 0.0 1.0 0.00 0.00 0.00 48 1007.8
20260509024707 49 176 1.0 2.0 0.00 0.00 0.00 51 1008.0
20260509024206 49 151 1.0 2.0 0.00 0.00 0.00 48 1008.0
20260509023706 49 287 1.0 1.0 0.00 0.00 0.00 52 1008.0
20260509023207 49 238 0.0 2.0 0.00 0.00 0.00 46 1008.0
20260509022706 49 110 1.0 3.0 0.00 0.00 0.00 47 1008.0
20260509022206 50 276 0.0 2.0 0.00 0.00 0.00 47 1008.0
20260509021707 50 180 0.0 1.0 0.00 0.00 0.00 47 1008.0
20260509021206 50 155 0.0 2.0 0.00 0.00 0.00 47 1008.0
20260509015207 51 174 1.0 2.0 0.00 0.00 0.00 47 1007.9
20260509014206 52 157 0.0 2.0 0.00 0.00 0.00 48 1007.9
20260509013707 52 162 0.0 2.0 0.00 0.00 0.00 45 1007.9
20260509013207 52 165 1.0 2.0 0.00 0.00 0.00 46 1007.9
20260509012706 53 154 1.0 2.0 0.00 0.00 0.00 44 1007.9
20260509012207 54 153 0.0 1.0 0.00 0.00 0.00 42 1007.9
20260509011206 55 166 1.0 2.0 0.00 0.00 0.00 39 1007.9
20260509010206 56 185 0.0 1.0 0.00 0.00 0.00 37 1007.9
20260509004707 58 141 1.0 2.0 0.00 0.00 0.00 36 1007.9
20260509004206 59 215 1.0 3.0 0.00 0.00 0.00 34 1007.9
20260509003706 59 223 1.0 3.0 0.00 0.00 0.00 33 1008.0
20260509003206 60 244 2.0 6.0 0.00 0.00 0.00 32 1008.0
20260509002707 60 259 3.0 7.0 0.00 0.00 0.00 31 1007.9
20260509002207 61 226 2.0 5.0 0.00 0.00 0.00 31 1007.9
20260509001707 61 250 3.0 7.0 0.00 0.00 0.00 31 1008.0
20260509001207 61 209 3.0 7.0 0.00 0.00 0.00 30 1008.0
20260509000207 61 215 4.0 8.0 0.00 0.00 0.00 30 1008.1
20260508235706 62 213 3.0 8.0 0.00 0.00 0.00 30 1008.1
20260508235207 62 220 3.0 8.0 0.00 0.00 0.00 29 1008.2
20260508234707 62 233 3.0 8.0 0.00 0.00 0.00 30 1008.3
20260508234207 62 298 4.0 10.0 0.00 0.00 0.00 30 1008.3
20260508232707 62 269 3.0 6.0 0.00 0.00 0.00 30 1008.3
20260508232206 62 268 4.0 9.0 0.00 0.00 0.00 30 1008.3
20260508231706 62 273 5.0 8.0 0.00 0.00 0.00 30 1008.4
20260508225706 63 304 5.0 9.0 0.00 0.00 0.00 29 1008.3
20260508225206 63 285 3.0 6.0 0.00 0.00 0.00 29 1008.3
20260508224707 63 271 4.0 9.0 0.00 0.00 0.00 30 1008.3
20260508223706 62 256 4.0 13.0 0.00 0.00 0.00 29 1008.4
20260508223207 62 256 4.0 13.0 0.00 0.00 0.00 30 1008.4
20260508222706 62 286 6.0 14.0 0.00 0.00 0.00 30 1008.4
20260508222206 62 293 6.0 15.0 0.00 0.00 0.00 30 1008.4
20260508221706 62 272 3.0 9.0 0.00 0.00 0.00 30 1008.4
20260508221206 62 306 8.0 13.0 0.00 0.00 0.00 30 1008.4
20260508220706 62 294 7.0 13.0 0.00 0.00 0.00 30 1008.4
20260508220206 62 297 5.0 12.0 0.00 0.00 0.00 30 1008.4
20260508214706 62 290 7.0 10.0 0.00 0.00 0.00 30 1008.4
20260508214207 62 295 7.0 10.0 0.00 0.00 0.00 31 1008.5
20260508213706 62 287 6.0 10.0 0.00 0.00 0.00 31 1008.5
20260508213206 62 269 5.0 10.0 0.00 0.00 0.00 30 1008.5
20260508212706 62 285 5.0 10.0 0.00 0.00 0.00 30 1008.6
20260508212206 62 298 6.0 12.0 0.00 0.00 0.00 31 1008.5
20260508211206 62 279 7.0 10.0 0.00 0.00 0.00 31 1008.6
20260508210706 62 208 6.0 13.0 0.00 0.00 0.00 32 1008.6
20260508205706 62 231 3.0 9.0 0.00 0.00 0.00 31 1008.7
20260508205206 62 285 5.0 12.0 0.00 0.00 0.00 31 1008.8
20260508204706 62 257 5.0 12.0 0.00 0.00 0.00 30 1008.7
20260508203707 62 297 5.0 9.0 0.00 0.00 0.00 29 1008.8
20260508203206 62 306 3.0 7.0 0.00 0.00 0.00 30 1008.9
20260508202707 61 292 5.0 13.0 0.00 0.00 0.00 31 1009.0
20260508202206 61 276 4.0 13.0 0.00 0.00 0.00 31 1009.0
20260508201706 61 286 6.0 10.0 0.00 0.00 0.00 31 1009.0
20260508201206 62 252 6.0 13.0 0.00 0.00 0.00 31 1009.1
20260508200706 61 252 3.0 9.0 0.00 0.00 0.00 31 1009.1
20260508200206 61 282 4.0 9.0 0.00 0.00 0.00 31 1009.3
20260508195706 61 243 6.0 14.0 0.00 0.00 0.00 31 1009.4
20260508195207 61 278 6.0 14.0 0.00 0.00 0.00 30 1009.4
20260508194706 61 290 5.0 12.0 0.00 0.00 0.00 30 1009.4
20260508194206 62 289 8.0 14.0 0.00 0.00 0.00 29 1009.5
20260508193706 62 276 5.0 14.0 0.00 0.00 0.00 31 1009.6
20260508193206 62 292 10.0 14.0 0.00 0.00 0.00 30 1009.5
20260508192706 62 256 5.0 8.0 0.00 0.00 0.00 31 1009.6
20260508192206 61 339 5.0 10.0 0.00 0.00 0.00 32 1009.6
20260508191706 60 314 6.0 13.0 0.00 0.00 0.00 32 1009.6
20260508191206 60 291 7.0 12.0 0.00 0.00 0.00 32 1009.6
20260508190706 60 278 6.0 20.0 0.00 0.00 0.00 33 1009.7
20260508185706 60 240 6.0 12.0 0.00 0.00 0.00 33 1009.8
20260508185206 60 279 4.0 8.0 0.00 0.00 0.00 31 1009.9
20260508184706 60 216 4.0 9.0 0.00 0.00 0.00 31 1009.9
20260508184206 60 211 4.0 13.0 0.00 0.00 0.00 32 1010.0
20260508183206 60 292 6.0 12.0 0.00 0.00 0.00 33 1010.0
20260508182706 60 261 4.0 10.0 0.00 0.00 0.00 36 1010.2
20260508182206 60 238 5.0 10.0 0.00 0.00 0.00 36 1010.2
20260508181706 60 22 3.0 8.0 0.00 0.00 0.00 36 1010.2
20260508181206 59 229 6.0 9.0 0.00 0.00 0.00 36 1010.2
20260508180705 59 315 5.0 9.0 0.00 0.00 0.00 36 1010.3
20260508180206 59 297 5.0 13.0 0.00 0.00 0.00 35 1010.4
20260508175205 59 302 7.0 13.0 0.00 0.00 0.00 35 1010.5
20260508174706 59 153 4.0 10.0 0.00 0.00 0.00 35 1010.5
20260508174206 59 278 6.0 13.0 0.00 0.00 0.00 34 1010.6
20260508173706 59 309 9.0 14.0 0.00 0.00 0.00 34 1010.7
20260508172206 59 282 5.0 10.0 0.00 0.00 0.00 35 1011.0
20260508171706 59 237 5.0 9.0 0.00 0.00 0.00 34 1011.1
20260508171206 59 230 6.0 9.0 0.00 0.00 0.00 34 1011.1
20260508170706 59 234 5.0 13.0 0.00 0.00 0.00 34 1011.3
20260508165206 59 316 6.0 13.0 0.00 0.00 0.00 32 1011.4
20260508164705 59 304 4.0 10.0 0.00 0.00 0.00 34 1011.5
20260508164206 58 255 6.0 13.0 0.00 0.00 0.00 33 1011.5
20260508163705 58 218 5.0 9.0 0.00 0.00 0.00 35 1011.6
20260508163205 58 298 3.0 10.0 0.00 0.00 0.00 33 1011.6
20260508162706 57 240 3.0 10.0 0.00 0.00 0.00 36 1011.6
20260508162205 57 230 5.0 12.0 0.00 0.00 0.00 35 1011.6
20260508161705 57 291 3.0 8.0 0.00 0.00 0.00 34 1011.8
20260508161206 56 12 3.0 13.0 0.00 0.00 0.00 35 1011.7
20260508160205 57 270 5.0 10.0 0.00 0.00 0.00 33 1011.7
20260508155706 57 268 4.0 9.0 0.00 0.00 0.00 34 1011.8
20260508155205 57 358 4.0 10.0 0.00 0.00 0.00 32 1011.7
20260508154206 56 233 5.0 9.0 0.00 0.00 0.00 35 1011.7
20260508153705 56 317 5.0 10.0 0.00 0.00 0.00 37 1011.7
20260508152705 56 194 3.0 8.0 0.00 0.00 0.00 40 1011.8
20260508152206 55 311 2.0 12.0 0.00 0.00 0.00 39 1011.8
20260508151706 55 258 5.0 9.0 0.00 0.00 0.00 40 1012.0
20260508151205 55 201 6.0 12.0 0.00 0.00 0.00 40 1012.0
20260508150705 55 239 6.0 12.0 0.00 0.00 0.00 41 1012.1
20260508150205 55 295 5.0 10.0 0.00 0.00 0.00 40 1012.1
20260508145706 55 267 6.0 14.0 0.00 0.00 0.00 40 1012.1
20260508145206 54 213 4.0 9.0 0.00 0.00 0.00 38 1012.0
20260508144705 54 235 2.0 8.0 0.00 0.00 0.00 41 1012.1
20260508144205 54 312 5.0 10.0 0.00 0.00 0.00 39 1012.1
20260508143705 53 307 6.0 10.0 0.00 0.00 0.00 46 1012.0
20260508143206 53 254 3.0 8.0 0.00 0.00 0.00 45 1012.1
20260508142705 53 234 5.0 8.0 0.00 0.00 0.00 47 1012.2
20260508142206 53 237 5.0 9.0 0.00 0.00 0.00 48 1012.3
20260508141705 53 224 3.0 7.0 0.00 0.00 0.00 49 1012.4
20260508141205 52 261 4.0 7.0 0.00 0.00 0.00 47 1012.4
20260508140707 51 242 2.0 7.0 0.00 0.00 0.00 52 1012.4
20260508140205 51 226 3.0 7.0 0.00 0.00 0.00 59 1012.5
20260508135205 50 221 5.0 7.0 0.00 0.00 0.00 61 1012.4
20260508134705 50 223 3.0 6.0 0.00 0.00 0.00 62 1012.5
20260508134205 50 222 3.0 5.0 0.00 0.00 0.00 63 1012.5
20260508133707 49 263 2.0 6.0 0.00 0.00 0.00 65 1012.5
20260508133206 49 215 3.0 5.0 0.00 0.00 0.00 65 1012.5
20260508132205 48 227 2.0 5.0 0.00 0.00 0.00 67 1012.6
20260508131706 47 243 2.0 5.0 0.00 0.00 0.00 67 1012.6
20260508130205 47 224 3.0 5.0 0.00 0.00 0.00 67 1012.7
20260508125205 46 242 2.0 5.0 0.00 0.00 0.00 66 1012.7
20260508124705 45 201 1.0 3.0 0.00 0.00 0.00 68 1012.7
20260508124205 45 235 2.0 6.0 0.00 0.00 0.00 69 1012.7
20260508123205 44 226 3.0 7.0 0.00 0.00 0.00 71 1012.7
20260508122705 44 232 3.0 6.0 0.00 0.00 0.00 72 1012.6
20260508121705 42 230 2.0 5.0 0.00 0.00 0.00 74 1012.5
20260508121205 42 244 3.0 5.0 0.00 0.00 0.00 76 1012.4
20260508120705 42 249 2.0 3.0 0.00 0.00 0.00 78 1012.4
20260508120205 41 280 1.0 2.0 0.00 0.00 0.00 80 1012.3
20260508115705 41 292 1.0 2.0 0.00 0.00 0.00 81 1012.3
20260508115206 41 269 0.0 2.0 0.00 0.00 0.00 80 1012.3
20260508114705 40 327 0.0 1.0 0.00 0.00 0.00 82 1012.2
20260508114205 39 111 0.0 1.0 0.00 0.00 0.00 84 1012.0
20260508113704 37 174 0.0 2.0 0.00 0.00 0.00 86 1012.0
20260508113205 36 110 0.0 1.0 0.00 0.00 0.00 88 1012.0
20260508112705 35 104 0.0 1.0 0.00 0.00 0.00 92 1012.1
20260508112205 34 143 0.0 1.0 0.00 0.00 0.00 93 1012.1
20260508111705 33 105 0.0 1.0 0.00 0.00 0.00 95 1012.1
20260508111205 33 216 1.0 2.0 0.00 0.00 0.00 95 1012.1
20260508110705 33 163 0.0 1.0 0.00 0.00 0.00 96 1012.1
20260508110205 32 10 0.0 1.0 0.00 0.00 0.00 96 1012.0
20260508105704 32 6 0.0 2.0 0.00 0.00 0.00 96 1011.9
20260508104704 32 65 0.0 2.0 0.00 0.00 0.00 96 1011.9
20260508104205 32 46 0.0 2.0 0.00 0.00 0.00 96 1011.9
20260508103205 32 92 0.0 2.0 0.00 0.00 0.00 96 1011.9
20260508102205 33 182 0.0 1.0 0.00 0.00 0.00 96 1012.0
20260508101705 33 75 0.0 2.0 0.00 0.00 0.00 96 1012.0
20260508101205 33 62 1.0 2.0 0.00 0.00 0.00 96 1012.0
20260508100705 33 40 1.0 2.0 0.00 0.00 0.00 96 1012.1
20260508100205 33 57 0.0 2.0 0.00 0.00 0.00 95 1012.0
20260508095705 33 60 1.0 2.0 0.00 0.00 0.00 95 1012.0
20260508095205 33 83 0.0 1.0 0.00 0.00 0.00 95 1012.1
20260508094705 33 343 0.0 1.0 0.00 0.00 0.00 94 1012.1
20260508094205 33 48 0.0 1.0 0.00 0.00 0.00 94 1012.1
20260508093205 33 65 0.0 2.0 0.00 0.00 0.00 94 1012.2
20260508092705 33 85 0.0 2.0 0.00 0.00 0.00 94 1012.2
20260508092204 33 43 1.0 2.0 0.00 0.00 0.00 93 1012.2
20260508091704 33 348 0.0 2.0 0.00 0.00 0.00 93 1012.2
20260508091204 33 8 0.0 1.0 0.00 0.00 0.00 92 1012.2
20260508090705 34 8 0.0 1.0 0.00 0.00 0.00 92 1012.2
20260508090205 34 41 0.0 2.0 0.00 0.00 0.00 92 1012.2
20260508085205 34 46 0.0 2.0 0.00 0.00 0.00 92 1012.2
20260508084704 34 52 1.0 2.0 0.00 0.00 0.00 92 1012.2
20260508084204 34 66 0.0 2.0 0.00 0.00 0.00 92 1012.1
20260508083705 34 142 0.0 1.0 0.00 0.00 0.00 92 1012.1
20260508083205 34 129 0.0 1.0 0.00 0.00 0.00 91 1012.1
20260508082705 34 69 0.0 1.0 0.00 0.00 0.00 91 1012.2
20260508082204 35 5 0.0 1.0 0.00 0.00 0.00 91 1012.2
20260508081704 35 111 0.0 2.0 0.00 0.00 0.00 90 1012.3
20260508080705 35 46 1.0 2.0 0.00 0.00 0.00 91 1012.3
20260508080205 35 38 0.0 1.0 0.00 0.00 0.00 91 1012.4
20260508075705 35 101 0.0 1.0 0.00 0.00 0.00 91 1012.4
20260508075206 35 27 0.0 1.0 0.00 0.00 0.00 91 1012.4
20260508074704 35 88 0.0 1.0 0.00 0.00 0.00 91 1012.3
20260508074204 36 148 1.0 1.0 0.00 0.00 0.00 90 1012.3
20260508073705 36 117 0.0 1.0 0.00 0.00 0.00 90 1012.3
20260508073204 36 120 0.0 1.0 0.00 0.00 0.00 90 1012.4
20260508072705 36 149 0.0 1.0 0.00 0.00 0.00 90 1012.4
20260508072204 36 197 0.0 1.0 0.00 0.00 0.00 90 1012.4
20260508071704 37 83 0.0 2.0 0.00 0.00 0.00 90 1012.4
20260508071205 37 33 1.0 2.0 0.00 0.00 0.00 89 1012.4
20260508070705 37 131 0.0 2.0 0.00 0.00 0.00 89 1012.4
20260508070205 37 176 0.0 2.0 0.00 0.00 0.00 88 1012.5
20260508065704 37 105 0.0 1.0 0.00 0.00 0.00 87 1012.5
20260508064205 38 6 0.0 1.0 0.00 0.00 0.00 87 1012.5
20260508063705 38 329 0.0 1.0 0.00 0.00 0.00 87 1012.4
20260508063204 38 254 0.0 1.0 0.00 0.00 0.00 86 1012.5
20260508062205 38 68 0.0 2.0 0.00 0.00 0.00 85 1012.5
20260508061705 38 128 1.0 2.0 0.00 0.00 0.00 85 1012.5
20260508060704 39 151 1.0 2.0 0.00 0.00 0.00 84 1012.6
20260508060204 39 145 1.0 1.0 0.00 0.00 0.00 84 1012.6
20260508055704 38 56 0.0 1.0 0.00 0.00 0.00 84 1012.7
20260508055205 38 179 0.0 1.0 0.00 0.00 0.00 84 1012.7
20260508054204 39 62 0.0 1.0 0.00 0.00 0.00 84 1012.7